Regional Weather Roundup
Issued by NWS

Home | Current Version | Previous Version | Text Only | Print | Product List | Glossary Off
Versions: 1 2 3 4 5 6 7 8 9 10 11 12 13 14 15 16 17 18 19 20 21 22 23 24 25 26 27 28 29 30 31 32 33 34 35 36 37 38 39 40 41 42 43 44 45 46 47 48 49 50

000
ASUS43 KLMK 301610
RWRKY
KENTUCKY REGIONAL WEATHER ROUNDUP
NATIONAL WEATHER SERVICE LOUISVILLE KY
1100 AM EST FRI JAN 30 2015

NOTE "FAIR" INDICATES FEW OR NO CLOUDS BELOW 12,000 FEET
WITH NO SIGNIFICANT WEATHER AND/OR OBSTRUCTIONS TO VISIBILITY.

KYZ001>023-026-027-061>063-070>075-301700-
WESTERN AND SOUTH CENTRAL KENTUCKY

CITY           SKY/WX    TMP DP  RH WIND       PRES   REMARKS
PADUCAH        MOSUNNY   38  22  52 NE10      30.53R WCI  31
HENDERSON      MOSUNNY   36  21  55 N8        30.53R WCI  29
OWENSBORO      MOSUNNY   36  24  62 N7        30.52R WCI  30
HOPKINSVILLE   PTSUNNY   37  24  57 N8G17     30.51R WCI  31
BOWLING GREEN  MOSUNNY   38  21  50 N9G17     30.50R WCI  31
GLASGOW        PTSUNNY   36  24  61 NW12      30.47R WCI  28
$$

KYZ024-025-028>034-038-045-046-053-301700-
NORTH CENTRAL KENTUCKY

CITY           SKY/WX    TMP DP  RH WIND       PRES   REMARKS
LOUISVILLE/SDF PTSUNNY   36  20  52 N18       30.47R WCI  26
LOUISVILLE/LOU PTSUNNY   34  20  56 N12G20    30.48R WCI  25
FORT KNOX      CLOUDY    34  24  66 NW13      30.45R WCI  25
$$

KYZ035>037-039>044-047>052-055>060-089>105-301700-
NORTHEAST KENTUCKY

CITY           SKY/WX    TMP DP  RH WIND       PRES   REMARKS
LEXINGTON      CLOUDY    31  21  66 N16       30.43R WCI  20
COVINGTON      PTSUNNY   29  14  53 N20       30.44R WCI  16
FRANKFORT      PTSUNNY   33  18  53 NW15G23   30.44R WCI  23
$$

KYZ054-064>069-076>088-106>120-301700-
SOUTHEAST KENTUCKY

CITY           SKY/WX    TMP DP  RH WIND       PRES   REMARKS
JACKSON        CLOUDY    29  22  75 VRB5      30.35R WCI  24
LONDON         PTSUNNY   36  16  44 NW13G23   30.37R WCI  27
SOMERSET       PTSUNNY   34  19  55 N12G18    30.42S WCI  25
MIDDLESBORO    PTSUNNY   35  21  56 N9G21     30.37R WCI  28
MONTICELLO     CLOUDY    36  23  59 NW13      30.44R WCI  27
$$




USA.gov is the U.S. government's official web portal to all federal, state and local government web resources and services.